Weather in Wuxi

China     28°05′56″N   119°32′09″E
temp.,
°C
wind,
m/s
gust,
m/s
humid.,
%
clouds,
%
prec.,
mm/h
press.,
hPa
HPBL,
m
12 may, wed
wed1223:00+18sw22943 0.0 100929
02:00+18sw119699 0.9 100818
05:00+18sw119687 0.0 100813
08:00+22wnw118595 0.0 1009333
11:00+25wsw1279100 1.4 1009685
14:00+26w127799 5.3 1006825
17:00+22w1193100 6.1 100713
20:00+20ssw2296100 11.1 100829
13 may, thu
thu1323:00+20s1198100 11.7 101040
02:00+19sw1197100 12.0 100823
05:00+19ssw1197100 0.0 100818
08:00+22ssw1289100 0.9 1010278
11:00+24sw1380100 0.7 1009687
14:00+21ssw2397100 6.3 1009229
17:00+21wsw1298100 1.9 100977
20:00+20sw1197100 1.9 101012
14 may, fri
fri1423:00+19s2398100 2.1 101082
02:00+19ssw1197100 2.3 100924
05:00+19sw2298100 2.9 100932
08:00+21s1194100 6.8 1011159
11:00+24ese1184100 0.3 1010479
14:00+28ese1366100 0.7 1007876
17:00+26ne1187100 2.5 100797
20:00+22s2294100 2.6 100930
15 may, sat
sat1523:00+20s239694 0.0 100956
02:00+20s2397100 0.0 100854
05:00+20s2296100 0.0 100835
08:00+24ssw228695 0.0 1009207
11:00+31sw374295 0.0 10071783
14:00+32sw46385 0.0 10051817
17:00+30sw12590 0.0 1005107
20:00+23ssw327972 0.0 100740
16 may, sun
sun1623:00+21ssw23850 0.0 100743
02:00+20ssw228486 0.0 100733
05:00+20ssw2280100 0.0 100734
08:00+26ssw236596 0.0 1007251
11:00+32wsw38357 0.0 10071796
14:00+32wsw36410 0.0 10051696
17:00+30wsw146039 0.0 10051340
20:00+23ssw2280100 0.0 100730